GW5243 Weather Reports


time (UTC)temp
C
wind
direction
speed
KPH
gust
KPH
rain 1hr
cm
rain 24hr
cm
rain mn
cm
humidity
%
barometer
mb
20260505010027 12 242 0.0 3.2 0.00 0.00 0.00 64 1007.0
20260505004517 12 240 0.0 3.2 0.00 0.00 0.00 61 1006.8
20260505003017 12 300 0.0 3.2 0.00 0.00 0.00 62 1006.7
20260505001522 14 294 0.0 3.2 0.00 0.00 0.00 47 1006.4
20260505000038 16 271 0.0 4.8 0.00 0.00 0.00 44 1006.2
20260504234528 17 129 1.6 6.4 0.00 0.00 0.00 43 1005.9
20260504233016 17 160 0.0 8.0 0.00 0.00 0.00 43 1005.7
20260504231517 17 180 1.6 6.4 0.00 0.00 0.00 40 1005.5
20260504230026 18 171 3.2 6.4 0.00 0.00 0.00 38 1005.2
20260504224524 19 290 1.6 16.1 0.00 0.00 0.00 37 1005.2
20260504223013 20 303 4.8 17.7 0.00 0.00 0.00 35 1005.1
20260504221525 20 352 4.8 12.9 0.00 0.00 0.00 35 1005.0
20260504220039 20 300 3.2 17.7 0.00 0.00 0.00 35 1004.9
20260504214507 20 61 4.8 16.1 0.00 0.00 0.00 34 1005.1
20260504213014 20 85 3.2 12.9 0.00 0.00 0.00 35 1005.0
20260504211514 20 57 4.8 16.1 0.00 0.00 0.00 35 1005.2
20260504210020 20 251 4.8 16.1 0.00 0.00 0.00 39 1005.1
20260504204536 19 281 3.2 22.5 0.00 0.00 0.00 38 1005.3
20260504203007 18 340 6.4 17.7 0.00 0.00 0.00 36 1005.2
20260504201514 18 342 9.7 16.1 0.00 0.00 0.00 38 1005.2
20260504200019 18 232 6.4 24.1 0.00 0.00 0.00 37 1005.3
20260504194524 19 281 6.4 27.4 0.00 0.00 0.00 37 1005.5
20260504193027 19 125 8.0 20.9 0.00 0.00 0.00 38 1005.5
20260504191511 18 10 4.8 16.1 0.00 0.00 0.00 39 1005.6
20260504190020 19 338 4.8 24.1 0.00 0.00 0.00 37 1005.4
20260504184520 19 273 8.0 19.3 0.00 0.00 0.00 36 1005.6
20260504183026 18 212 4.8 27.4 0.00 0.00 0.00 40 1005.7
20260504181531 18 211 8.0 19.3 0.00 0.00 0.00 39 1005.5
20260504180014 17 279 6.4 17.7 0.00 0.00 0.00 46 1005.6
20260504174522 16 285 3.2 14.5 0.00 0.00 0.00 41 1005.8
20260504173022 17 266 6.4 22.5 0.00 0.00 0.00 41 1005.7
20260504171524 17 9 4.8 19.3 0.00 0.00 0.00 41 1005.7
20260504081529 -17 0.0 0.0 0.00 0.00 0.00 1008.2
20260504050018 0 269 0.0 3.2 0.00 0.00 0.00 90 1008.4
20260504044532 -1 333 0.0 0.0 0.00 0.00 0.00 90 1008.5
20260504043034 -1 333 0.0 0.0 0.00 0.00 0.00 90 1008.5
20260504041507 -1 333 0.0 0.0 0.00 0.00 0.00 88 1008.4
20260504040021 -1 326 0.0 0.0 0.00 0.00 0.00 87 1008.3
20260504034518 -1 326 0.0 0.0 0.00 0.00 0.00 86 1008.3
20260504033022 -1 298 0.0 0.0 0.00 0.00 0.00 85 1008.4
20260504031525 -1 298 0.0 0.0 0.00 0.00 0.00 85 1008.4
20260504030015 -1 300 0.0 0.0 0.00 0.00 0.00 84 1008.2
20260504024516 0 300 0.0 0.0 0.00 0.00 0.00 82 1008.3
20260504023024 0 300 0.0 0.0 0.00 0.00 0.00 81 1008.4
20260504021532 0 300 0.0 0.0 0.00 0.00 0.00 80 1008.6
20260504020035 0 300 0.0 0.0 0.00 0.00 0.00 79 1008.4
20260504014517 0 291 0.0 0.0 0.00 0.00 0.00 78 1008.4
20260504013019 1 290 0.0 0.0 0.00 0.00 0.00 77 1008.3
20260504011524 1 290 0.0 0.0 0.00 0.00 0.00 78 1008.1